SUPERBIRD-C2

Last updated on Mon Oct 14 2024 00:02:38 GMT+0000 (Coordinated Universal Time)

1 33274U 08038A 24287.54150490 -.00000252 00000+0 00000+0 0 9997 2 33274 0.7724 89.0755 0001671 140.8119 131.6229 1.00271060 99597
UTC large
Height (km)
Speed (km/s)
/
Latitude / Longitude
Inclination (degrees)
Orbital Period (minutes)
Azimuth
Elevation
Range (km)
Doppler Factor

Next 0 passes for location: London (51.5072 / 0.1276)

Sorry there are no passes over London.